Cloud_Cover
3 5 23 13 100 100 100 100 100 93 88 8 20 100 100 0 0 0 0 0 0 0 0 0 0 0 0 0 0 0 4 4 0 1 0 0 0 0 0 0 0 0 0 0 0
2 0 3 95 100 100 100 100 100 100 100 95 10 87 79 10 1 0 0 0 0 0 0 0 0 0 0 0 0 4 0 0 0 0 0 0 0 0 0 0 0 0 1 5 0
0 0 0 1 48 80 100 100 100 75 100 100 56 12 27 5 5 5 0 0 0 0 0 0 0 0 0 0 0 0 0 0 0 0 0 0 0 0 0 0 0 2 0 0 4
0 0 2 0 1 5 5 62 99 95 97 100 99 6 5 5 60 50 5 0 0 0 0 0 0 0 0 0 0 0 0 0 0 0 0 0 0 0 0 0 0 0 0 4 5
0 0 0 0 0 0 2 5 77 32 67 100 92 98 79 23 5 5 7 5 1 0 0 0 0 0 0 0 0 0 0 0 0 0 0 0 0 0 0 0 0 0 0 4 10
0 0 0 0 0 0 2 4 20 22 100 100 100 100 100 99 5 2 1 6 0 0 0 0 0 0 0 0 0 0 0 0 0 0 0 0 0 0 0 0 0 0 0 7 54
5 0 0 0 0 0 0 5 21 95 96 100 100 99 65 69 4 0 0 2 5 2 0 0 0 0 0 0 0 0 0 0 0 0 0 0 0 0 0 0 0 0 0 5 6
10 2 0 0 0 0 0 0 5 93 63 10 54 40 5 5 0 0 0 3 5 3 0 0 0 0 0 0 0 0 0 0 0 0 0 0 0 0 0 0 0 5 4 9 8
56 5 5 5 0 0 0 0 0 5 8 63 32 5 1 2 6 5 5 5 5 5 5 3 0 0 0 0 0 0 0 0 0 0 0 0 0 0 0 0 5 5 3 16 6
88 19 5 5 5 5 0 0 1 33 89 68 88 5 5 6 5 5 5 5 24 5 5 5 5 0 0 0 0 0 0 0 0 0 0 0 0 0 0 0 1 4 2 5 8
54 91 50 12 5 5 5 1 0 0 9 8 100 90 99 5 5 67 48 5 5 5 21 5 5 4 5 0 0 0 5 0 0 0 0 0 0 0 0 0 0 5 1 6 4
42 34 100 26 5 37 10 5 1 2 1 14 24 100 100 82 93 100 100 19 5 5 100 92 4 5 5 2 1 0 0 0 0 1 4 0 0 0 0 0 0 3 0 24 5
5 5 100 100 9 10 99 5 21 0 0 5 14 8 92 34 7 98 100 98 12 5 30 100 100 100 88 50 5 5 1 0 36 30 46 5 0 0 4 5 2 0 0 22 5
5 5 100 100 21 39 100 35 5 40 100 28 3 17 78 68 12 3 9 62 86 22 22 50 5 5 14 61 30 76 3 54 97 100 93 6 5 0 0 0 0 0 0 49 10
5 5 68 100 72 94 100 100 100 100 100 45 5 66 8 52 8 4 5 7 5 2 53 78 5 72 100 94 100 97 45 5 5 5 7 0 1 0 0 0 0 0 0 91 1
0 0 1 64 100 100 100 90 100 100 96 7 1 5 5 30 5 4 0 2 0 3 35 5 5 5 98 44 92 100 16 8 19 31 7 0 1 5 0 0 0 0 0 54 6
5 1 8 26 16 19 77 100 100 100 100 9 6 29 4 3 2 0 0 0 0 0 3 0 5 13 100 54 5 3 3 88 100 100 6 0 3 15 0 2 0 0 0 42 88
55 48 4 5 100 90 10 18 90 100 100 91 65 92 46 1 5 0 0 0 3 3 0 0 2 0 7 80 7 2 0 3 5 0 0 0 5 5 0 0 0 0 0 10 100
100 12 11 5 12 64 20 75 100 100 100 100 100 19 3 0 2 1 0 0 0 0 0 0 0 0 0 5 4 0 0 3 5 58 34 0 1 0 0 0 0 0 22 39 54
100 99 100 10 19 5 62 100 100 100 70 5 5 5 2 0 0 0 0 0 0 0 0 0 0 1 0 4 0 0 3 5 51 53 4 5 0 0 0 0 0 17 15 77 99
97 99 100 96 5 20 100 38 5 5 4 5 5 5 4 3 3 4 1 0 0 0 0 0 9 6 7 6 4 5 5 0 15 5 5 0 0 0 0 0 0 95 100 100 100
100 91 98 100 93 100 31 5 5 6 23 94 34 5 96 56 5 5 5 0 0 0 0 0 0 5 7 28 65 5 5 0 0 5 0 0 0 0 0 0 15 99 100 100 100
100 95 58 60 79 100 80 5 21 47 57 100 100 90 64 99 100 100 96 2 0 0 0 0 2 5 5 46 76 5 4 0 0 0 0 0 0 2 0 0 3 100 100 100 100
100 100 100 97 60 72 100 100 12 5 69 23 19 51 65 83 100 100 100 5 0 0 0 0 5 5 5 35 5 5 5 2 0 0 1 0 0 0 0 0 3 41 94 100 100
100 100 100 100 92 100 100 68 66 22 5 100 50 98 100 100 100 100 100 98 3 0 0 0 4 5 19 5 5 5 34 82 19 4 1 0 0 0 5 4 3 38 100 100 100
5 92 88 79 89 81 85 98 93 29 5 12 97 24 85 100 100 100 100 100 40 0 0 0 0 0 5 7 4 5 5 45 92 7 5 5 0 0 78 27 72 90 100 100 100
2 1 4 15 11 8 16 60 98 100 13 14 5 30 5 13 76 100 100 100 99 71 0 0 0 0 1 2 5 5 0 0 15 36 5 0 23 72 57 71 2 100 100 100 100